Brangus — WDB4516 — position and weather

sailwx.info

Track history (hours):
 
Tides and Currents Weather Stations Pressure Air Temp Water Temp Dewpoint Dewpoint Depression Visibility Wind Speed Wind Dir Waves Ship Positions

Brangus

Owner: Great Lakes Dredge & Dock Company, Oak Brook, IL. More information available from US FCC via Universal Licensing System and Coast Guard Vessel Documentation Center.

Last reported at 2014-Oct-21 03:33 UTC. Time now 2014-Oct-21 03:59 UTC.
Position N 25°46' W 080°06'.

Length 46 m; draft 2.3 m.

Type: Tug. MMSI: 366899270.

Date/timePositionNaut miles runAvg speedWind from/ knotsBaromVisibWave heightAir tempDewpointWater temp
2014-Oct-21 03:33N 25°46' W 080°06'0 0.0
2014-Oct-20 23:33N 25°46' W 080°06'0 0.0
2014-Oct-20 12:30N 25°46' W 080°06'4 0.2
2014-Oct-19 13:10N 25°46' W 080°10'0 0.1
2014-Oct-19 11:31N 25°46' W 080°10'1 0.2
2014-Oct-19 07:25N 25°46' W 080°09'3 0.2
2014-Oct-18 18:33N 25°46' W 080°06'0 0.0
2014-Oct-18 17:33N 25°46' W 080°06'0 0.4
2014-Oct-18 16:33N 25°46' W 080°06'0 0.2
2014-Oct-18 15:33N 25°46' W 080°06'2 1.0
2014-Oct-18 13:03N 25°46' W 080°09'2 3.3
2014-Oct-18 12:33N 25°45' W 080°07'1 0.3
2014-Oct-18 08:33N 25°46' W 080°06'0 0.0
2014-Oct-18 07:33N 25°46' W 080°06'0 0.0
2014-Oct-18 06:33N 25°46' W 080°06'0 0.0
2014-Oct-18 00:27N 25°46' W 080°06'0 0.0
2014-Oct-17 23:28N 25°46' W 080°06'0 0.0
2014-Oct-17 22:12N 25°46' W 080°06'0 0.0
2014-Oct-17 19:33N 25°46' W 080°06'0 0.0
2014-Oct-17 18:33N 25°46' W 080°06'0 0.1
2014-Oct-17 17:33N 25°46' W 080°06'0 0.1
2014-Oct-17 16:27N 25°46' W 080°06'0 0.1
2014-Oct-17 15:16N 25°46' W 080°06'2 0.6
2014-Oct-17 12:31N 25°46' W 080°08'1 0.7
2014-Oct-17 10:28N 25°46' W 080°06'0 0.2
2014-Oct-17 09:33N 25°46' W 080°06'0 0.0
2014-Oct-17 08:33N 25°46' W 080°06'0 0.0
2014-Oct-17 05:28N 25°46' W 080°06'0 0.0
2014-Oct-16 23:28N 25°46' W 080°06'0 0.1
2014-Oct-16 22:33N 25°46' W 080°06'0 0.1
2014-Oct-16 21:31N 25°46' W 080°06'0 0.0
2014-Oct-16 20:33N 25°46' W 080°06'0 0.1
2014-Oct-16 19:24N 25°46' W 080°06'0 0.0
2014-Oct-16 18:33N 25°46' W 080°06'0 0.0
2014-Oct-16 17:33N 25°46' W 080°06'1 0.2
2014-Oct-16 14:03N 25°45' W 080°07'1 1.8
2014-Oct-16 13:32N 25°46' W 080°06'0 0.0
2014-Oct-16 12:30N 25°46' W 080°06'5 0.1
2014-Oct-14 14:25N 25°49' W 080°10'  
Track history (hours):
 
Tides and Currents Weather Stations Pressure Air Temp Water Temp Dewpoint Dewpoint Depression Visibility Wind Speed Wind Dir Waves Ship Positions

Brangus

Owner: Great Lakes Dredge & Dock Company, Oak Brook, IL. More information available from US FCC via Universal Licensing System and Coast Guard Vessel Documentation Center.

Last reported at 2014-Oct-21 03:33 UTC. Time now 2014-Oct-21 03:59 UTC.
Position N 25°46' W 080°06'.

Length 46 m; draft 2.3 m.

Type: Tug. MMSI: 366899270.

Date/timePositionNaut miles runAvg speedWind from/ knotsBaromVisibWave heightAir tempDewpointWater temp
2014-Oct-21 03:33N 25°46' W 080°06'0 0.0
2014-Oct-20 23:33N 25°46' W 080°06'0 0.0
2014-Oct-20 12:30N 25°46' W 080°06'4 0.2
2014-Oct-19 13:10N 25°46' W 080°10'0 0.1
2014-Oct-19 11:31N 25°46' W 080°10'1 0.2
2014-Oct-19 07:25N 25°46' W 080°09'3 0.2
2014-Oct-18 18:33N 25°46' W 080°06'0 0.0
2014-Oct-18 17:33N 25°46' W 080°06'0 0.4
2014-Oct-18 16:33N 25°46' W 080°06'0 0.2
2014-Oct-18 15:33N 25°46' W 080°06'2 1.0
2014-Oct-18 13:03N 25°46' W 080°09'2 3.3
2014-Oct-18 12:33N 25°45' W 080°07'1 0.3
2014-Oct-18 08:33N 25°46' W 080°06'0 0.0
2014-Oct-18 07:33N 25°46' W 080°06'0 0.0
2014-Oct-18 06:33N 25°46' W 080°06'0 0.0
2014-Oct-18 00:27N 25°46' W 080°06'0 0.0
2014-Oct-17 23:28N 25°46' W 080°06'0 0.0
2014-Oct-17 22:12N 25°46' W 080°06'0 0.0
2014-Oct-17 19:33N 25°46' W 080°06'0 0.0
2014-Oct-17 18:33N 25°46' W 080°06'0 0.1
2014-Oct-17 17:33N 25°46' W 080°06'0 0.1
2014-Oct-17 16:27N 25°46' W 080°06'0 0.1
2014-Oct-17 15:16N 25°46' W 080°06'2 0.6
2014-Oct-17 12:31N 25°46' W 080°08'1 0.7
2014-Oct-17 10:28N 25°46' W 080°06'0 0.2
2014-Oct-17 09:33N 25°46' W 080°06'0 0.0
2014-Oct-17 08:33N 25°46' W 080°06'0 0.0
2014-Oct-17 05:28N 25°46' W 080°06'0 0.0
2014-Oct-16 23:28N 25°46' W 080°06'0 0.1
2014-Oct-16 22:33N 25°46' W 080°06'0 0.1
2014-Oct-16 21:31N 25°46' W 080°06'0 0.0
2014-Oct-16 20:33N 25°46' W 080°06'0 0.1
2014-Oct-16 19:24N 25°46' W 080°06'0 0.0
2014-Oct-16 18:33N 25°46' W 080°06'0 0.0
2014-Oct-16 17:33N 25°46' W 080°06'1 0.2
2014-Oct-16 14:03N 25°45' W 080°07'1 1.8
2014-Oct-16 13:32N 25°46' W 080°06'0 0.0
2014-Oct-16 12:30N 25°46' W 080°06'5 0.1
2014-Oct-14 14:25N 25°49' W 080°10'  

Dump ship's entire track history